This is the latest recevied weather packets stored in our database for station/object CQ0XSM-11. If no packets are shown the sender has not sent any weather packets the latest 1 day(s).
| Time | Temp. | Humidity | Pressure | Rain* | Wind** | Luminosity | Snow |
|---|---|---|---|---|---|---|---|
| 1778013058 | 10° C | 90% | 997 hPa | 0 mm | 1.34 m/s, 319° | - | - |
| 1778012126 | 10.56° C | 85% | 997 hPa | 0 mm | 3.13 m/s, 302° | - | - |
| 1778011847 | 10.56° C | 83% | 996.9 hPa | 0 mm | 2.24 m/s, 321° | - | - |
| 1778011537 | 10.56° C | 81% | 996.9 hPa | 0 mm | 0.89 m/s, 314° | - | - |
| 1778011232 | 10.56° C | 78% | 996.8 hPa | 0 mm | 2.24 m/s, 320° | - | - |
| 1778010922 | 10.56° C | 77% | 996.8 hPa | 0 mm | 1.34 m/s, 316° | - | - |
| 1778010621 | 11.11° C | 75% | 996.7 hPa | 0 mm | 0.89 m/s, 309° | - | - |
| 1778010314 | 11.11° C | 74% | 996.6 hPa | 0 mm | 2.68 m/s, 321° | - | - |
| 1778010040 | 11.11° C | 73% | 996.6 hPa | 0 mm | 2.24 m/s, 314° | - | - |
| 1778009702 | 11.11° C | 73% | 996.4 hPa | 0 mm | 1.79 m/s, 319° | - | - |
| 1778009411 | 11.67° C | 74% | 996.3 hPa | 0 mm | 0.89 m/s, 341° | - | - |
| 1778008792 | 11.67° C | 70% | 996.1 hPa | 0 mm | 4.47 m/s, 319° | - | - |
| 1778008474 | 12.22° C | 69% | 996.1 hPa | 0 mm | 1.34 m/s, 285° | - | - |
| 1778008215 | 12.22° C | 68% | 996 hPa | 0 mm | 3.58 m/s, 324° | - | - |
| 1778007874 | 12.22° C | 69% | 996.1 hPa | 0 mm | 2.68 m/s, 330° | - | - |
| 1778007574 | 12.22° C | 69% | 996.1 hPa | 0 mm | 1.34 m/s, 338° | - | - |
| 1778007286 | 12.22° C | 68% | 996.1 hPa | 0 mm | 2.24 m/s, 298° | - | - |
| 1778006994 | 12.22° C | 67% | 996.1 hPa | 0 mm | 1.34 m/s, 306° | - | - |
| 1778006655 | 12.78° C | 65% | 996.1 hPa | 0 mm | 4.02 m/s, 313° | - | - |
| 1778006390 | 12.78° C | 63% | 995.8 hPa | 0 mm | 4.02 m/s, 311° | - | - |
| 1778006054 | 13.33° C | 61% | 995.7 hPa | 0 mm | 1.34 m/s, 317° | - | - |
| 1778005760 | 13.33° C | 60% | 995.8 hPa | 0 mm | 2.24 m/s, 316° | - | - |
| 1778005157 | 13.33° C | 60% | 995.7 hPa | 0 mm | 2.68 m/s, 316° | - | - |
| 1778004841 | 13.33° C | 61% | 995.6 hPa | 0 mm | 0.89 m/s, 286° | - | - |
| 1778004235 | 13.33° C | 60% | 995.7 hPa | 0 mm | 4.92 m/s, 318° | - | - |
* Rain since midnight (hover to see other rain measurements)
** Current wind speed in m/s (hover to see current wind gust speed)